Zurück zum Katalog

ONEWEB-0513

AktivKommunikationPO
NORAD 54131·PAYLOAD·🇬🇧 United Kingdom

Gestartet Oct 22, 2022 von Satish Dhawan Space Centre

Loading…

Nächste Überflüge (nächste 24 Stunden)

TLE

AktuellSource: CelesTrak SupGP

Epoche: Sep 14, 2026, 14:35 UTC

1 54131C 22138U   26257.60812913 -.00000860  00000+0 -21332-2 0  2577
2 54131  87.9111 287.0887 0002786  82.6378   6.3462 13.20264156    12

Verfolge ONEWEB-0513 in Echtzeit mit AllMySat

Download on the App Store